Year,Month,Day,Hour,Minute,Value (Times are PST for temperature in C)
2009,10,28,18,15,3.50
2009,10,28,18,16,3.50
2009,10,28,18,17,3.50
2009,10,28,18,18,3.50
2009,10,28,18,19,3.50
2009,10,28,18,20,3.50
2009,10,28,18,21,3.50
2009,10,28,18,22,3.50
2009,10,28,18,23,3.50
2009,10,28,18,24,3.40
2009,10,28,18,25,3.40
2009,10,28,18,26,3.40
2009,10,28,18,27,3.40
2009,10,28,18,28,3.40
2009,10,28,18,29,3.40
2009,10,28,18,30,3.40
2009,10,28,18,31,3.40
2009,10,28,18,32,3.40
2009,10,28,18,33,3.40
2009,10,28,18,34,3.40
2009,10,28,18,35,3.50
2009,10,28,18,36,3.50
2009,10,28,18,37,3.50
2009,10,28,18,38,3.40
2009,10,28,18,39,3.40
2009,10,28,18,40,3.40
2009,10,28,18,41,3.40
2009,10,28,18,42,3.40
2009,10,28,18,43,3.40
2009,10,28,18,44,3.40
2009,10,28,18,45,3.40
2009,10,28,18,46,3.40
2009,10,28,18,47,3.40
2009,10,28,18,48,3.40
2009,10,28,18,49,3.30
2009,10,28,18,50,3.30
2009,10,28,18,51,3.30
2009,10,28,18,52,3.30
2009,10,28,18,53,3.30
2009,10,28,18,54,3.30
2009,10,28,18,55,3.30
2009,10,28,18,56,3.30
2009,10,28,18,57,3.30
2009,10,28,18,58,3.30
2009,10,28,18,59,3.30
2009,10,28,19,00,3.30
2009,10,28,19,01,3.30
2009,10,28,19,02,3.30
2009,10,28,19,03,3.30
2009,10,28,19,04,3.30
2009,10,28,19,05,3.30
2009,10,28,19,06,3.30
2009,10,28,19,07,3.20
2009,10,28,19,08,3.20
2009,10,28,19,09,3.20
2009,10,28,19,10,3.20
2009,10,28,19,11,3.30
2009,10,28,19,12,3.30
2009,10,28,19,13,3.30
2009,10,28,19,14,3.30
2009,10,28,19,15,3.30
2009,10,28,19,16,3.20
2009,10,28,19,17,3.20
2009,10,28,19,18,3.20
2009,10,28,19,19,3.20
2009,10,28,19,20,3.20
2009,10,28,19,21,3.10
2009,10,28,19,39,3.00
2009,10,28,19,40,3.00
2009,10,28,19,41,3.00
2009,10,28,19,42,2.90
2009,10,28,19,43,2.90
2009,10,28,19,44,2.90
2009,10,28,19,45,2.90
2009,10,28,19,46,2.90
2009,10,28,19,47,3.00
2009,10,28,19,48,3.00
2009,10,28,19,49,3.00
2009,10,28,19,50,3.00
2009,10,28,19,51,3.00
2009,10,28,19,52,3.00
2009,10,28,19,53,3.00
2009,10,28,19,54,2.90
2009,10,28,19,55,2.90
2009,10,28,19,56,2.90
2009,10,28,19,57,2.90
2009,10,28,19,58,2.90
2009,10,28,19,59,2.90
2009,10,28,20,00,2.90
2009,10,28,20,01,2.90
2009,10,28,20,02,2.90
2009,10,28,20,03,2.90
2009,10,28,20,04,2.90
2009,10,28,20,05,2.90
2009,10,28,20,06,2.90
2009,10,28,20,07,2.90
2009,10,28,20,08,2.90
2009,10,28,20,09,2.90
2009,10,28,20,10,2.90
2009,10,28,20,11,2.80
2009,10,28,20,12,2.80
2009,10,28,20,13,2.80
2009,10,28,20,14,2.80
2009,10,28,20,15,2.80
2009,10,28,20,16,2.80
2009,10,28,20,17,2.80
2009,10,28,20,18,2.80
2009,10,28,20,19,2.80
2009,10,28,20,20,2.80
2009,10,28,20,21,2.80
2009,10,28,20,22,2.80
2009,10,28,20,23,2.80
2009,10,28,20,24,2.80
2009,10,28,20,25,2.80
2009,10,28,20,26,2.80
2009,10,28,20,27,2.80
2009,10,28,20,28,2.80
2009,10,28,20,29,2.80
2009,10,28,20,30,2.80
2009,10,28,20,31,2.80
2009,10,28,20,32,2.80
2009,10,28,20,33,2.80
2009,10,28,20,34,2.80
2009,10,28,20,35,2.80
2009,10,28,20,36,2.80
2009,10,28,20,37,2.80
2009,10,28,20,38,2.80
2009,10,28,20,39,2.80
2009,10,28,20,40,2.80
2009,10,28,20,41,2.90
2009,10,28,20,42,2.90
2009,10,28,20,43,2.90
2009,10,28,20,44,2.90
2009,10,28,20,45,2.90
2009,10,28,20,46,2.90
2009,10,28,20,47,2.90
2009,10,28,20,48,2.90
2009,10,28,20,49,2.90
2009,10,28,20,50,2.90
2009,10,28,20,51,2.90
2009,10,28,20,52,2.90
2009,10,28,20,53,2.80
2009,10,28,20,54,2.80
2009,10,28,20,55,2.80
2009,10,28,20,56,2.90
2009,10,28,20,57,2.90
2009,10,28,20,58,2.90
2009,10,28,20,59,2.90
2009,10,28,21,00,2.90
2009,10,28,21,01,2.90
2009,10,28,21,02,2.90
2009,10,28,21,03,2.90
2009,10,28,21,04,2.90
2009,10,28,21,05,2.90
2009,10,28,21,06,2.90
2009,10,28,21,07,2.90
2009,10,28,21,08,2.90
2009,10,28,21,09,2.90
2009,10,28,21,10,2.90
2009,10,28,21,11,3.00
2009,10,28,21,12,3.00
2009,10,28,21,13,3.00
2009,10,28,21,14,3.00
2009,10,28,21,15,3.00
2009,10,28,21,16,3.00
2009,10,28,21,17,3.00
2009,10,28,21,18,3.00
2009,10,28,21,19,2.90
2009,10,28,21,20,3.00
2009,10,28,21,21,2.90
2009,10,28,21,22,2.90
2009,10,28,21,23,2.90
2009,10,28,21,24,2.90
2009,10,28,21,25,2.90
2009,10,28,21,26,2.80
2009,10,28,21,27,2.80
2009,10,28,21,28,2.80
2009,10,28,21,29,2.80
2009,10,28,21,30,2.80
2009,10,28,21,31,2.70
2009,10,28,21,32,2.80
2009,10,28,21,33,2.80
2009,10,28,21,34,2.80
2009,10,28,21,35,2.80
2009,10,28,21,36,2.80
2009,10,28,21,37,2.80
2009,10,28,21,38,2.80
2009,10,28,21,39,2.90
2009,10,28,21,40,2.90
2009,10,28,21,41,2.90
2009,10,28,21,42,2.90
2009,10,28,21,43,2.90
2009,10,28,21,44,2.90
2009,10,28,21,45,3.00
2009,10,28,21,46,3.00
2009,10,28,21,47,3.00
2009,10,28,21,48,3.00
2009,10,28,21,49,3.10
2009,10,28,21,50,3.00
2009,10,28,21,51,3.10
2009,10,28,21,52,3.10
2009,10,28,21,53,3.10
2009,10,28,21,54,3.10
2009,10,28,21,55,3.10
2009,10,28,21,56,3.10
2009,10,28,21,57,3.10
2009,10,28,21,58,3.10
2009,10,28,21,59,3.10
2009,10,28,22,00,3.10
2009,10,28,22,01,3.00
2009,10,28,22,02,3.00
2009,10,28,22,03,3.00
2009,10,28,22,04,3.00
2009,10,28,22,05,3.00
2009,10,28,22,06,3.00
2009,10,28,22,07,3.00
2009,10,28,22,08,3.00
2009,10,28,22,09,3.00
2009,10,28,22,10,3.00
2009,10,28,22,11,3.00
2009,10,28,22,12,2.90
2009,10,28,22,13,2.90
2009,10,28,22,14,2.90
2009,10,28,22,15,2.90
2009,10,28,22,16,2.90
2009,10,28,22,17,2.90
2009,10,28,22,18,2.90
2009,10,28,22,19,3.00
2009,10,28,22,20,3.00
2009,10,28,22,21,3.00
2009,10,28,22,22,3.00
2009,10,28,22,23,3.00
2009,10,28,22,24,3.00
2009,10,28,22,25,3.00
2009,10,28,22,26,3.00
2009,10,28,22,27,3.00
2009,10,28,22,28,2.90
2009,10,28,22,29,2.90
2009,10,28,22,30,2.90
2009,10,28,22,31,2.90
2009,10,28,22,32,2.90
2009,10,28,22,33,2.90
2009,10,28,22,34,2.90
2009,10,28,22,35,2.90
2009,10,28,22,36,2.90
2009,10,28,22,37,2.90
2009,10,28,22,38,2.90
2009,10,28,22,39,2.90
2009,10,28,22,40,2.90
2009,10,28,22,41,2.90
2009,10,28,22,42,2.80
2009,10,28,22,43,2.80
2009,10,28,22,44,2.80
2009,10,28,22,45,2.90
2009,10,28,22,46,2.90
2009,10,28,22,47,2.90
2009,10,28,22,48,2.90
2009,10,28,22,49,2.80
2009,10,28,22,50,2.80
2009,10,28,22,51,2.80
2009,10,28,22,52,2.80
2009,10,28,22,53,2.80
2009,10,28,22,54,2.80
2009,10,28,22,55,2.80
2009,10,28,22,56,2.80
2009,10,28,22,57,2.90
2009,10,28,22,58,2.90
2009,10,28,22,59,2.90
2009,10,28,23,00,2.90
2009,10,28,23,01,2.90
2009,10,28,23,02,2.90
2009,10,28,23,03,2.90
2009,10,28,23,04,2.90
2009,10,28,23,05,2.90
2009,10,28,23,06,2.90
2009,10,28,23,07,2.90
2009,10,28,23,08,2.90
2009,10,28,23,09,2.90
2009,10,28,23,10,2.90
2009,10,28,23,11,2.90
2009,10,28,23,12,2.90
2009,10,28,23,13,2.90
2009,10,28,23,14,2.90
2009,10,28,23,15,3.00
2009,10,28,23,16,3.00
2009,10,28,23,17,3.00
2009,10,28,23,18,3.10
2009,10,28,23,19,3.10
2009,10,28,23,20,3.10
2009,10,28,23,21,3.20
2009,10,28,23,22,3.20
2009,10,28,23,23,3.20
2009,10,28,23,24,3.20
2009,10,28,23,25,3.20
2009,10,28,23,26,3.20
2009,10,28,23,27,3.20
2009,10,28,23,28,3.20
2009,10,28,23,29,3.30
2009,10,28,23,30,3.30
2009,10,28,23,31,3.30
2009,10,28,23,32,3.30
2009,10,28,23,33,3.30
2009,10,28,23,34,3.30
2009,10,28,23,35,3.30
2009,10,28,23,36,3.30
2009,10,28,23,37,3.30
2009,10,28,23,38,3.30
2009,10,28,23,39,3.30
2009,10,28,23,40,3.30
2009,10,28,23,41,3.40
2009,10,28,23,42,3.40
2009,10,28,23,43,3.40
2009,10,28,23,44,3.40
2009,10,28,23,45,3.40
2009,10,28,23,46,3.40
2009,10,28,23,47,3.40
2009,10,28,23,48,3.40
2009,10,28,23,49,3.40
2009,10,28,23,50,3.50
2009,10,28,23,51,3.50
2009,10,28,23,52,3.50
2009,10,28,23,53,3.60
2009,10,28,23,54,3.60
2009,10,28,23,55,3.60
2009,10,28,23,56,3.60
2009,10,28,23,57,3.70
2009,10,28,23,58,3.70
2009,10,28,23,59,3.70
